STARLINK-3043, 49179

Orbit data source: Space-Track

STARLINK-3043, 49179 is a payload satellite owned by SpaceX/Seattle (US) in LEO that was launched on Tue, 14 Sep 2021 UTC via an FALCON 9 launch vehicle from the Air Force Western Test Range (AFWTR). Payload-class satellites include a variety of spacecraft equipped with specific instruments for various scientific and technological missions. These include communications satellites like Starlink; space stations such as the ISS; scientific satellites like the Hubble; Earth observation satellites from companies like Planet Labs, Umbra, and HawkEye 360; GPS; miniature CubeSats for education and research; and military/defense satellites.

Loading next visibility...
Identifier
49179, 2021-082BB
Orbit
LEO
Country
Flag of USUS
Related business
Manufacturer
SpaceX/Seattle
Mission
Operational Commercial Communications
Bus & Motor
STARLINK, Unknown motor
Mass
297 kg wet, ~275 kg dry
Launch date (UTC)
2021-09-14 (5 years ago)
Launch vehicle
FALCON 9
Launch site
Air Force Western Test Range (AFWTR)
Object type
Payload
Rocket body
Debris
Shape & HBR
Box + 1 Pan, 10.1 m
Radar Cross Section
13.562 m², Large (>1 m²)

Expand to show TLE details & history
Last TLE update: 17 hours ago

TLE from 17 hours ago
0 STARLINK-3043
1 49179U 21082BB  26125.39270900 -.00000280  00000-0 -15641-4 0  9992
2 49179  69.9994 111.4788 0003056 272.6297  87.4512 14.98331123255450
Epoch: 2026-05-05T09:25Z
TLE epoch observation values (Epoch: 2026-05-05T09:25:30.057Z)
Latitude
-0.00005°
Longitude
106.83534°
Altitude
574.382 km
Speed
7.574 km/s
True Right ascension
07h 25m 54s
True Declination
0° 00' 00"
Sunlit
Object was in daylight at epoch
Visualization orbit readout
Latitude
Unknown
Longitude
Unknown
Altitude
Unknown
Speed
Unknown
Apparent Right ascension
Unknown
Apparent Declination
Unknown
Sunlit
N/A
Visualization observer readout
Local Sidereal Time
09:53:20
Azimuth
Unknown
Elevation
Unknown
Doppler factor
Unknown
Orbital elements
Apogee altitude
572.124 km
Perigee altitude
567.877 km
Semi-major axis
6,948.138 km
Eccentricity
0.00031
Inclination
69.9994°
RAAN
111.4788°
Arg. of periapsis
272.6297°
True anomaly
87.48619°
Mean anomaly
87.4512°
Eccentric anomaly
87.46869°
Mean motion
3.74749 °/min
Orbital period
96.06 mins
BSTAR
-0.000015641
Loading maneuver chart data...
Computing Atmospheric mass density...
Loading historical data...
Loading historical data...
Loading historical data...
Loading historical data...
Loading historical data...
Loading historical data...
Loading historical data...

Documentation

Showing up to 5 results
|